Hourly Data Report for October 02, 2012

All times are specified in Local Standard Time (LST). Add 1 hour to adjust for Daylight Saving Time where and when it is observed.

KITCHENER/WATERLOO
ONTARIO

43°27'39.000" N
80°22'43.000" W
321.60 m
6144239
71368
YKF

Download Data

Hourly Data (October 2012)
Hourly Data Report for October 2, 2012
Temp Definition
°C
Dew Point Temp Definition
°C
Rel Hum Definition
%
Wind Dir Definition
10's deg

Wind Spd Definition
km/h
Visibility Definition
km
Stn Press Definition
kPa
Hmdx Definition


Wind Chill Definition


Weather Definition


TIME
00:00 Legend Double Dagger 6.6 6.5 99 2 4 4.0 97.41     LegendNANA
01:00 Legend Double Dagger 7.3 7.2 99 LegendMM 4 6.4 97.40     LegendNANA
02:00 Legend Double Dagger 8.0 7.9 99 31 4 11.3 97.40     LegendNANA
03:00 Legend Double Dagger 8.6 8.5 99 34 4 16.1 97.40     LegendNANA
04:00 Legend Double Dagger 9.4 9.1 98 2 5 14.5 97.35     LegendNANA
05:00 Legend Double Dagger 9.8 9.4 97   0 16.1 97.43     LegendNANA
06:00 Legend Double Dagger 10.7 9.8 94 6 5 16.1 97.39     LegendNANA
07:00 Legend Double Dagger 11.0 10.2 95 36 5 16.1 97.43     LegendNANA
08:00 Legend Double Dagger 11.8 10.7 93 LegendMM 4 12.9 97.47     LegendNANA
09:00 Legend Double Dagger 13.9 10.9 82 3 8 16.1 97.49     LegendNANA
10:00 Legend Double Dagger 15.8 11.0 73 8 13 16.1 97.50     LegendNANA
11:00 Legend Double Dagger 17.4 10.9 65 6 13 16.1 97.50     LegendNANA
12:00 Legend Double Dagger 18.9 10.9 59 8 17 16.1 97.49     LegendNANA
13:00 Legend Double Dagger 20.0 10.0 52 11 21 16.1 97.44     LegendNANA
14:00 Legend Double Dagger 19.3 11.3 59 9 18 16.1 97.42     LegendNANA
15:00 Legend Double Dagger 20.0 11.2 57 8 18 16.1 97.42     LegendNANA
16:00 Legend Double Dagger 19.2 11.8 62 6 15 16.1 97.42     LegendNANA
17:00 Legend Double Dagger 18.5 11.9 65 9 17 16.1 97.46     LegendNANA
18:00 Legend Double Dagger 16.6 11.5 71 10 9 16.1 97.55     LegendNANA
19:00 Legend Double Dagger 15.5 11.0 74 9 13 16.1 97.60     LegendNANA
20:00 Legend Double Dagger 15.0 11.2 78 8 13 16.1 97.64     LegendNANA
21:00 Legend Double Dagger 14.1 12.0 87 8 13 16.1 97.66     LegendNANA
22:00 Legend Double Dagger 13.5 12.2 92 8 9 16.1 97.63     LegendNANA
23:00 Legend Double Dagger 13.5 12.7 95 8 21 8.1 97.60     LegendNANA

Notes on Data Quality.

Legend

  • E = Estimated
  • M = Missing
  • NA = Not Available
  • ‡ = Partner data that is not subject to review by the National Climate Archives
Date modified: